Find Starlink 11741

NORAD ID: 64064 Int'l Des: 2025-107 Owner: SPXS Country: US Constellation: starlink operational
LEOCIRCULAR

Live-Position

3D-Globus wird geladen...

Über Starlink 11741

Beschreibung wird geladen...

Nächste Überflüge

Passes for default location (London). Set your location on the main map for personalized predictions.

Höhenverlauf

Loading altitude history...

Zweizeiliger Elementsatz

1 64064U 25107A 26107.29495096 .00124669 00000-0 95942-3 0 9995
2 64064 43.0004 226.0721 0001353 275.7475 84.3239 15.70868521 53361
Epoch: 17. Apr. 2026 • Age: 8 hours

Aktueller Status

Höhe 359.0 km
Geschwindigkeit 7.69 km/s
Subsatellitenpunkt -15.48°S, 18.19°W
Startdatum 21. Mai 2025
Alter 0.9 years
Typ internet

Technische Details

Klassifizierung Payload
Masse 960.00 kg
Trockenmasse 910.00 kg
Gesamtmasse 960.00 kg
Länge 0.30 m
Durchmesser 4.10 m
Spannweite 29.00 m
Form Box + pan
Hersteller SPXS
Bus-Typ Starlink V2MD
Phasenstatus In Orbit
Besitzer/Staat SPXS/US

Most Searched